Temp
24 24 24 25 24 24 23 23 23 23 23 24 23 23 23 23 22 22 22 22 21 22 22 22 22 23 23 23 23 23 21 21 19 21 22 24 24 24 24 23 23 24 23
25 24 24 24 24 23 23 23 23 23 22 22 22 22 22 22 22 22 22 22 22 22 22 22 22 23 23 23 23 23 23 22 21 20 22 23 24 24 24 24 23 23 23
24 24 24 23 23 23 23 23 23 22 22 22 22 22 22 22 22 22 22 22 22 22 22 22 22 22 22 23 22 22 22 22 22 21 21 22 23 23 23 24 24 24 24
24 24 23 23 23 22 22 22 22 21 21 21 21 21 22 22 21 22 22 22 22 22 22 22 22 22 22 22 22 22 22 22 22 21 21 21 22 23 22 22 23 24 25
24 23 22 22 21 21 21 20 20 20 20 20 20 21 21 20 20 21 21 21 21 21 21 21 21 21 21 21 21 21 21 20 20 20 20 20 20 21 22 22 22 22 23
23 22 21 21 20 20 20 20 19 19 19 19 19 19 19 19 19 19 20 20 21 21 21 21 21 21 21 21 21 21 21 21 21 19 19 19 20 21 21 21 21 20 20
22 21 21 20 20 19 19 19 19 18 18 18 18 18 18 18 18 18 19 19 19 19 19 20 20 20 20 20 20 20 20 20 20 20 19 19 20 20 20 20 20 20 19
21 20 20 19 19 19 18 18 17 17 17 17 17 17 18 17 17 18 18 18 18 18 18 18 18 19 18 19 19 19 19 20 20 20 19 19 20 20 20 20 20 20 20
19 19 19 18 18 18 17 16 16 16 16 16 16 16 16 16 16 16 17 17 17 17 17 16 17 17 16 17 17 17 18 19 19 19 19 19 19 20 20 19 19 18 19
19 18 18 18 17 17 16 16 16 16 16 16 16 16 15 15 15 15 14 15 15 15 16 15 15 15 16 16 16 16 16 17 18 19 20 20 20 20 21 20 20 18 19
18 18 17 17 16 16 16 16 16 15 16 15 15 14 14 14 14 14 14 14 13 13 14 15 14 14 15 15 15 16 16 16 16 16 17 18 19 19 20 20 20 19 18
17 17 16 16 15 15 16 15 15 15 15 15 14 13 13 13 13 13 13 13 12 12 12 13 13 13 14 15 15 15 15 15 15 15 15 16 17 18 19 19 19 19 19
16 16 15 15 15 15 15 15 15 15 14 14 14 13 13 13 12 12 12 11 11 11 12 12 12 12 13 13 13 13 14 14 14 14 15 15 15 16 17 17 18 19 19
15 15 15 15 15 15 15 15 15 15 14 14 13 13 12 11 10 10 9 9 10 12 12 12 12 11 10 11 12 12 12 12 13 14 14 14 15 15 16 17 17 18 17
15 15 15 15 15 15 15 15 15 15 14 14 13 12 11 10 8 7 8 9 10 10 10 9 10 8 8 8 8 8 9 9 10 10 11 12 13 14 15 15 16 16 16
15 15 15 15 15 15 15 15 15 15 14 14 13 12 11 9 8 7 8 8 9 9 8 8 8 7 7 7 7 7 7 7 7 8 8 9 9 10 11 13 15 15 15
15 15 16 16 16 15 15 15 14 13 13 13 12 12 11 10 9 9 10 9 8 8 7 7 7 7 7 6 6 6 6 6 7 7 7 7 7 8 8 10 11 13 15
16 16 16 16 16 16 15 15 14 14 13 13 12 12 11 10 10 10 9 10 9 7 7 7 6 6 6 6 6 6 6 5 6 6 6 7 7 6 7 8 9 10 10
16 16 16 16 17 16 16 16 15 14 13 13 12 12 11 10 10 10 9 9 8 8 8 8 8 8 8 8 7 7 7 7 6 6 6 6 6 6 6 7 7 8 9
16 16 17 17 17 17 16 16 16 14 13 13 13 13 12 10 11 11 10 9 9 9 9 9 9 8 8 8 8 8 8 8 8 7 7 6 6 5 5 6 6 7 8
17 17 17 17 17 17 16 16 15 15 15 14 14 13 13 12 12 11 11 11 10 10 10 10 10 9 9 8 8 8 8 8 8 8 7 7 6 5 5 6 6 7 8
17 18 17 17 17 16 16 16 15 15 15 15 14 13 13 12 12 12 11 11 11 11 10 10 10 10 9 9 8 8 8 8 8 8 8 8 7 5 4 5 6 7 8
17 17 17 17 17 17 16 16 16 16 16 15 14 14 14 13 13 13 12 12 12 11 11 11 11 11 10 10 9 8 8 8 8 8 8 8 8 7 5 5 6 6 6
17 17 17 17 17 17 17 16 16 16 16 15 15 15 14 14 13 13 13 13 12 12 12 11 11 11 11 10 10 9 8 8 8 8 8 8 8 7 7 7 7 7 7
17 17 17 17 17 17 17 16 16 16 16 15 15 15 15 14 14 14 13 13 13 12 12 11 11 11 11 10 10 9 9 9 9 9 9 8 8 7 7 7 7 8 8
17 17 17 17 16 16 16 17 16 16 16 15 16 15 15 15 14 14 14 13 13 12 12 12 11 11 11 10 10 10 10 9 9 9 9 9 8 8 8 8 8 8 7
Height
793 795 796 797 798 800 800 800 800 800 800 800 799 800 802 804 806 808 809 810 810 811 812 813 814 815 815 816 817 816 817 818 819 815 814 813 812 811 811 812 812 811 810
790 794 795 796 797 799 801 801 801 801 800 800 800 800 802 803 804 804 805 806 806 807 808 810 810 810 810 812 813 812 813 813 814 812 811 810 808 808 808 807 807 806 805
789 791 794 796 798 800 801 801 802 802 802 801 801 800 801 802 802 802 802 803 803 803 804 805 805 806 806 807 808 808 808 808 808 807 806 806 804 804 803 802 801 801 800
788 790 793 796 799 801 802 802 803 803 804 803 802 802 801 802 802 801 801 801 801 801 801 802 803 803 803 803 803 804 803 802 802 801 801 801 800 798 797 796 794 794 793
788 791 795 797 799 801 802 802 803 803 803 803 803 802 802 802 801 800 800 800 801 801 801 800 801 801 800 800 799 798 798 798 798 797 796 795 795 794 792 791 789 789 787
790 794 797 799 800 801 802 802 803 804 803 803 802 803 802 802 801 800 799 799 800 800 799 800 799 799 798 797 796 795 795 794 793 793 792 792 790 789 788 787 785 784 781
789 794 798 799 801 802 802 802 803 802 802 803 802 803 803 802 801 800 799 799 798 798 798 798 797 796 795 794 792 792 791 790 789 789 788 787 786 785 784 782 781 779 777
788 793 797 799 800 800 802 802 802 803 802 801 801 801 801 800 800 799 798 797 796 796 795 795 794 793 791 790 788 787 786 785 784 783 782 781 780 780 778 776 776 775 772
792 796 798 800 800 799 800 800 802 802 802 801 800 799 800 800 800 799 798 797 795 794 793 792 791 789 789 787 785 784 782 781 780 779 777 776 775 774 774 771 770 770 767
796 796 796 797 798 799 800 800 800 801 801 800 799 799 799 800 800 800 798 796 794 793 793 792 790 789 787 786 784 782 780 778 775 773 771 770 769 767 768 766 765 764 763
797 797 797 798 799 798 800 803 800 801 802 802 802 801 799 799 798 796 796 795 793 791 790 788 787 785 783 782 781 779 777 775 771 769 766 764 763 760 759 759 758 757 757
799 799 796 800 800 797 798 800 799 799 801 802 801 802 803 800 798 795 792 791 790 788 786 784 782 779 777 774 773 772 771 769 766 765 762 759 757 755 753 752 750 749 749
797 798 799 798 799 796 798 799 800 799 799 799 799 800 801 799 797 795 791 787 786 785 784 782 779 777 775 772 771 770 768 766 764 761 759 757 755 752 749 747 745 744 742
797 795 797 797 795 795 797 799 801 801 802 803 801 799 799 797 795 794 790 787 785 785 784 781 778 776 774 773 769 767 765 763 761 759 757 754 751 748 745 743 741 738 736
793 794 793 792 794 794 797 798 798 801 801 803 803 801 798 796 794 794 793 788 785 783 782 781 778 775 773 772 769 767 765 763 760 758 754 751 748 745 742 739 737 735 732
790 788 790 789 791 793 797 796 799 801 800 801 802 802 800 797 795 792 792 790 786 783 782 783 783 780 778 775 771 769 766 763 761 758 754 752 748 745 741 737 734 731 728
786 787 787 788 789 790 795 796 799 799 800 799 803 802 799 798 795 793 791 791 788 786 785 785 785 782 782 778 775 772 769 766 763 759 755 752 749 746 742 737 733 729 725
784 786 786 787 787 790 793 795 795 792 794 799 805 800 797 797 795 794 793 793 790 788 788 786 785 785 784 780 777 774 771 767 763 759 756 753 750 747 743 739 735 731 726
784 784 784 784 785 788 791 791 789 790 796 798 798 796 796 796 796 796 795 794 791 789 788 787 786 785 784 781 778 775 771 768 764 760 757 754 751 747 743 739 735 730 724
780 780 783 784 784 784 789 790 790 792 795 794 793 795 795 796 796 795 793 791 790 789 788 787 786 785 783 781 778 775 772 768 764 760 756 754 750 748 744 739 734 729 724
775 779 783 782 789 792 791 791 789 788 790 790 791 792 794 794 793 792 792 791 790 789 787 786 785 783 782 780 778 775 772 768 764 760 756 753 750 746 742 738 733 729 724
776 780 784 788 789 788 788 788 788 786 786 789 790 791 793 791 790 790 790 789 789 787 786 784 783 782 780 778 775 773 770 766 762 759 756 752 749 745 741 737 732 727 722
778 780 782 785 786 786 786 786 786 786 786 788 788 788 788 787 787 788 787 787 786 785 783 782 781 780 777 775 774 771 768 765 761 758 755 752 748 744 741 737 732 726 721
774 777 778 780 783 784 784 785 782 781 783 784 784 785 785 785 785 784 784 784 783 782 780 778 777 776 773 771 770 769 766 763 760 757 754 750 747 744 740 735 731 726 721
771 772 774 776 778 779 779 780 780 779 780 781 782 781 780 780 781 780 780 780 779 778 777 775 774 773 770 768 766 765 763 761 758 756 752 749 746 743 739 734 729 723 719
768 770 770 770 770 773 773 774 775 775 774 775 775 775 776 777 777 776 775 774 774 774 774 773 772 769 768 765 763 763 761 760 757 754 751 748 745 741 737 732 727 722 717
Wind_Speed
17 17 12 8 8 4 2 1 1 0 1 2 4 7 8 9 9 11 13 13 13 14 15 15 16 15 15 14 13 12 14 15 10 14 14 16 16 13 16 17 19 18 21
7 12 8 7 5 4 5 5 4 3 3 2 1 4 7 9 9 10 12 13 14 15 16 16 18 17 17 16 15 15 16 17 16 15 19 17 13 13 14 16 19 21 21
13 14 10 9 10 9 8 7 6 6 7 8 5 3 1 3 5 7 10 12 13 14 15 17 18 15 16 16 16 17 18 18 18 19 22 22 22 21 19 20 19 20 21
16 16 14 13 11 9 8 7 5 5 5 5 5 5 6 5 6 6 4 5 8 11 12 13 14 15 15 16 16 16 16 17 18 19 22 23 22 21 21 21 23 23 23
18 17 15 12 10 7 5 4 4 3 3 4 3 3 3 3 4 4 4 5 5 3 3 5 6 7 8 9 11 14 14 14 16 18 20 19 21 22 22 21 20 25 28
16 14 11 9 7 6 4 4 4 5 6 5 6 5 4 4 4 4 5 5 6 6 7 8 9 10 12 12 13 14 14 13 13 13 15 16 21 22 23 23 25 22 8
16 12 9 8 7 6 4 3 3 4 4 5 5 5 4 5 6 7 6 5 5 6 7 9 11 11 12 14 14 13 14 15 14 15 16 18 20 21 20 21 22 22 18
15 13 11 9 6 3 0 2 3 5 6 7 6 5 5 5 7 6 6 6 5 6 7 10 11 10 10 12 13 12 12 11 11 11 16 19 20 20 20 20 22 23 26
15 14 10 6 3 1 2 4 4 6 6 7 7 4 4 7 6 6 6 7 7 6 7 7 7 6 3 7 7 9 12 12 13 15 15 16 16 18 20 21 19 16 14
15 13 8 5 3 2 3 3 4 6 7 7 9 7 7 7 7 10 11 9 8 8 8 7 7 6 9 11 13 14 17 19 20 22 22 22 21 22 23 22 24 19 16
14 10 7 5 7 5 5 3 4 8 9 10 10 9 8 8 10 11 13 15 13 11 11 13 13 14 16 17 16 16 17 18 20 21 23 24 25 24 23 23 26 27 21
12 10 10 9 7 7 6 4 5 5 4 6 7 8 9 10 12 14 15 16 15 14 14 15 16 15 17 17 15 12 12 13 13 14 16 18 20 21 19 19 19 21 25
15 12 11 11 7 7 6 5 5 5 4 5 6 6 8 12 14 15 14 13 12 13 13 12 12 12 11 9 8 8 9 11 12 11 13 15 17 19 19 20 20 21 24
16 14 13 11 9 8 6 3 4 5 5 4 5 5 7 10 15 17 15 15 14 12 12 11 11 12 13 12 12 13 12 13 13 14 14 17 18 19 20 19 21 23 24
15 13 10 11 10 8 5 5 5 2 1 1 3 6 8 9 13 13 12 14 13 11 10 13 17 18 18 19 19 19 18 19 20 19 19 20 20 20 22 23 22 22 20
15 14 13 11 8 8 6 6 4 2 1 4 3 4 6 7 9 9 8 13 12 11 14 15 16 16 17 17 18 18 20 21 22 21 21 20 20 21 22 23 20 19 19
14 14 11 10 8 7 7 7 7 6 9 5 2 3 6 9 9 12 8 9 12 12 14 12 12 14 15 16 18 17 19 20 18 20 21 21 21 21 22 22 22 21 20
11 9 7 5 5 9 10 8 9 13 14 9 6 0 3 6 9 10 9 7 11 13 11 12 11 12 13 16 17 19 20 21 22 21 21 22 22 20 20 19 20 20 21
9 6 4 2 4 5 7 5 6 12 17 13 10 4 1 1 4 6 4 5 8 9 8 8 9 11 13 15 17 19 20 22 23 23 21 20 21 21 20 19 21 23 24
10 5 5 6 8 7 6 5 8 15 17 11 11 9 7 5 3 4 5 2 2 4 5 8 7 9 11 13 16 19 21 22 23 25 24 23 22 21 19 21 21 21 21
9 10 8 9 7 8 8 7 13 15 11 11 13 11 8 6 5 3 2 2 2 4 5 6 7 8 9 12 14 17 20 21 21 22 23 21 22 22 22 21 21 22 22
14 17 15 15 9 8 6 6 16 11 9 9 12 11 10 11 9 9 6 5 5 6 7 9 10 9 10 12 13 14 19 21 21 21 22 22 22 22 21 21 21 22 23
16 15 15 13 9 8 8 8 14 10 10 11 11 11 12 14 14 13 11 8 7 8 9 9 10 12 10 12 14 13 17 20 20 20 20 20 21 22 22 21 23 23 22
11 11 16 17 13 14 12 12 14 13 13 14 14 15 15 15 14 15 15 12 11 10 9 10 10 11 11 11 12 12 15 17 17 18 18 19 20 21 23 24 25 26 25
11 9 16 18 20 18 16 15 16 15 17 17 17 16 18 19 17 16 18 18 16 15 12 11 12 13 12 11 11 12 13 13 14 15 16 16 18 20 22 23 24 25 26
15 15 14 14 18 24 20 21 19 19 22 20 19 20 20 21 19 19 19 20 20 19 15 14 13 13 12 12 11 9 9 9 11 13 15 16 17 20 23 25 25 25 26
Wind_Direction
226 228 240 256 265 274 303 1 169 172 13 329 199 222 236 237 233 238 243 244 244 248 251 253 259 264 270 267 278 273 258 247 233 272 282 301 300 281 271 268 266 271 272
218 218 211 182 165 153 114 99 85 85 88 93 188 235 244 247 247 250 253 251 251 254 259 261 262 266 272 265 265 266 268 261 244 258 285 291 286 295 296 284 276 273 287
172 158 147 148 144 133 121 110 105 91 81 70 78 78 60 277 269 268 266 264 260 260 263 265 269 270 270 271 273 272 270 269 263 261 272 279 284 292 292 290 285 282 289
160 157 145 142 140 134 122 108 95 81 62 60 58 49 43 49 56 44 0 282 277 268 267 269 272 274 276 280 278 277 280 276 274 271 275 279 284 291 293 291 288 286 289
152 145 141 137 135 126 110 97 85 65 41 22 10 12 31 44 0 352 3 19 18 349 312 297 291 291 291 294 295 295 291 287 281 278 279 280 281 285 285 293 284 292 292
149 144 142 141 135 124 105 88 75 69 63 54 46 35 39 57 30 5 343 326 304 301 298 296 296 298 301 302 299 297 300 299 298 284 275 265 281 288 294 291 292 292 290
155 152 153 146 133 115 102 79 49 42 27 25 27 22 21 5 357 357 344 329 317 310 301 294 292 292 297 297 294 292 291 291 291 292 286 285 289 296 299 294 292 288 274
153 159 158 154 146 136 64 11 29 12 4 353 336 319 328 353 353 355 349 348 338 324 308 293 289 297 298 303 305 300 296 295 299 301 294 289 286 289 289 292 292 288 288
158 159 162 168 165 138 93 82 37 16 24 14 11 19 37 43 42 25 18 12 355 353 353 353 329 287 307 301 321 319 308 299 298 300 296 292 294 292 286 284 275 273 282
173 169 172 178 180 150 110 81 50 11 0 14 52 72 98 74 40 13 13 4 0 352 342 343 339 330 307 315 322 321 314 308 309 301 296 291 289 288 278 277 273 254 254
175 173 171 160 149 137 123 84 52 78 65 68 70 76 73 39 13 359 352 346 339 329 328 321 317 309 302 300 298 296 298 302 298 296 292 288 287 288 289 285 273 269 254
181 178 162 167 162 135 122 99 86 65 31 35 57 61 34 18 358 351 341 335 331 327 329 327 325 325 316 309 307 311 311 310 306 300 300 298 294 292 294 295 292 283 279
185 181 169 158 147 127 124 107 98 63 80 91 76 50 15 3 350 343 350 1 7 359 0 9 9 9 15 23 23 13 1 359 351 333 318 314 311 308 307 298 294 292 289
181 167 167 160 151 141 133 138 126 102 94 89 79 49 15 3 1 0 11 14 18 15 8 9 2 17 26 23 18 13 14 2 357 349 332 328 326 322 318 311 301 295 294
168 164 167 170 172 164 152 126 137 133 64 124 74 46 24 23 13 4 14 16 16 23 22 26 24 22 20 15 15 17 16 14 10 359 349 342 336 330 322 320 312 302 284
165 156 163 159 152 153 160 152 163 205 131 121 88 38 35 32 19 23 37 37 42 48 50 38 28 21 18 10 7 9 13 11 9 5 3 358 346 338 332 325 314 298 286
162 162 160 170 181 175 188 185 189 156 163 148 119 44 38 33 32 24 26 37 45 52 50 39 31 25 15 13 12 8 359 3 6 7 3 357 350 344 340 333 327 325 311
159 160 173 193 211 224 227 230 219 194 182 188 204 7 62 32 28 30 41 54 52 49 51 55 54 45 31 29 23 18 15 13 10 5 5 2 358 345 337 335 331 325 319
175 180 197 195 214 236 211 226 233 213 203 201 200 222 222 280 12 17 19 44 51 53 54 41 37 31 27 24 20 17 15 12 10 7 3 3 2 356 344 335 326 326 326
184 167 137 157 133 132 157 194 196 192 197 214 206 218 211 221 253 0 18 21 43 29 15 24 26 14 3 3 7 8 6 6 6 6 2 0 356 352 338 336 334 326 323
210 199 181 168 182 192 186 175 173 171 195 217 214 213 216 233 253 280 325 341 320 312 316 320 328 337 339 340 341 351 357 357 357 357 356 355 357 349 349 340 333 328 323
161 167 187 191 191 189 196 184 181 177 193 215 213 216 228 245 257 258 269 278 299 303 301 299 300 307 319 318 322 331 344 348 350 350 351 351 350 351 344 338 331 329 332
180 193 193 197 200 188 181 186 185 199 211 217 224 225 235 248 254 255 262 272 287 301 298 302 301 299 308 313 315 317 335 342 343 342 343 343 346 347 347 339 337 333 332
185 202 203 203 205 201 208 213 205 211 222 222 230 237 243 247 257 257 255 263 265 279 302 291 295 309 307 305 311 315 332 339 342 342 341 342 344 348 345 343 343 342 338
211 215 208 215 217 219 220 231 234 237 239 237 245 246 248 247 252 263 260 259 265 266 281 294 292 300 303 305 313 320 332 341 350 353 354 352 352 351 349 345 343 343 345
234 231 228 253 228 227 228 237 240 246 248 243 243 248 251 251 256 267 271 264 263 269 273 287 289 296 294 306 309 313 324 335 346 351 351 355 356 357 357 356 353 348 346